Regional Weather Roundup
Issued by NWS Sterling, VA

Home | Current Version | Previous Version | Text Only | Print | Product List | Glossary On
Versions: 1 2 3 4 5 6 7 8 9 10 11 12 13 14 15 16 17 18 19 20 21 22 23 24 25 26 27
000
ASUS41 KLWX 230711
RWRLWX

REGIONAL WEATHER ROUNDUP
NATIONAL WEATHER SERVICE BALTIMORE MD/WASHINGTON DC
300 AM EDT MON APR 23 2018

Note: "FAIR" indicates few or no clouds below 12,000 feet
with no significant weather and/or obstructions to visibility.
 TC=TEMPERATURE CELSIUS

 * =Non NWS site. Station does not report precipitation (e.g. rain,
    snow, etc.), thunder, or fog.

DCZ001-MDZ009-015-VAZ040>042-051-053>054-230800-
WASHINGTON METRO

CITY           SKY/WX    TMP DP  RH WIND       PRES   REMARKS
WASHINGTON NAT CLOUDY    53  37  54 CALM      30.40F
DULLES         MOCLDY    49  37  63 SE6       30.39F
ANDREWS AFB    CLOUDY    50  38  62 SE3       30.39S
FT BELVOIR     CLOUDY    51  37  58 CALM      30.39F
QUANTICO       CLOUDY    53  42  66 E3        30.40F
COLLEGE PARK*  MOCLDY    50  38  62 CALM      30.40S
LEESBURG*      FAIR      52  37  58 SE5       30.39F
MANASSAS*      MOCLDY    47  40  76 CALM      30.39F
GAITHERSBURG*  CLOUDY    50  36  58 SE5       30.39F

$$

MDZ006>007-011-014-230800-
BALTIMORE METRO

CITY           SKY/WX    TMP DP  RH WIND       PRES   REMARKS
BWI AIRPORT    MOCLDY    52  40  63 CALM      30.40F
MD SCIENCE CTR   N/A     55  40  56 MISG      30.41F
MARTIN STATE   CLOUDY    52  46  82 S3        30.42F
ANNAPOLIS      CLOUDY    55  43  63 CALM      30.40F
FORT MEADE*    CLOUDY    50  37  62 CALM      30.42F

$$

MDZ012-015-019>023-230800-
MARYLAND EASTERN SHORE

CITY           SKY/WX    TMP DP  RH WIND       PRES   REMARKS
OCEAN CITY     FAIR      49  41  74 SW7       30.41F
SALISBURY      FAIR      43  41  93 CALM      30.40F
BAY BRIDGE AP* CLOUDY    52  41  66 SE3       30.41S
CAMBRIDGE*     CLOUDY    50  41  71 CALM      30.40F
EASTON*        MOCLDY    51  40  66 CALM      30.44F

$$

MDZ017>025-230800-
SOUTHERN MARYLAND

CITY           SKY/WX    TMP DP  RH WIND       PRES   REMARKS
PATUXENT RIVER CLOUDY    54  43  66 SE6       30.39F
ST INIGOES     NOT AVBL
LEONARDTOWN*   CLOUDY    50  39  66 E3        30.41F

$$

MDZ003>005-230800-
NORTH CENTRAL MARYLAND

CITY           SKY/WX    TMP DP  RH WIND       PRES   REMARKS
FREDERICK*     MOCLDY    46  36  66 CALM      30.41F
HAGERSTOWN APT MOCLDY    53  34  48 SE5       30.36F
WESTMINSTER*   FAIR      52  34  50 S5        30.38F

$$

MDZ501>502-230800-
WESTERN MARYLAND

CITY           SKY/WX    TMP DP  RH WIND       PRES   REMARKS
OAKLAND*       FAIR      43  34  70 E14       30.29F
CUMBERLAND*    FAIR      46  36  66 CALM      30.37F

$$

VAZ025>031-230800-
SHENANDOAH VALLEY

CITY           SKY/WX    TMP DP  RH WIND       PRES   REMARKS
WINCHESTER*    FAIR      48  34  57 E8        30.36F
FRONT ROYAL*   FAIR      48  37  66 CALM      30.33F
LURAY*         FAIR      45  39  81 CALM      30.34F
NEW MARKET*    FAIR      43  39  85 CALM      30.33S
STAUNTON*      FAIR      48  38  68 CALM      30.35F
WAYNESBORO*    FAIR      49  38  65 SE5       30.34S

$$

WVZ021-048>050-054>055-230800-
EASTERN WEST VIRGINIA PANHANDLE

CITY           SKY/WX    TMP DP  RH WIND       PRES   REMARKS
MARTINSBURG    FAIR      50  35  56 CALM      30.35F
PETERSBURG*    FAIR      41  38  91 CALM      30.32F

$$

VAZ036>039-050-230800-
CENTRAL FOOTHILLS

CITY           SKY/WX    TMP DP  RH WIND       PRES   REMARKS
CHARLOTTESVILL FAIR      51  38  60 NE7       30.36S
CULPEPER*      FAIR      44  37  77 CALM      30.39F
ORANGE*        FAIR      43  37  81 CALM      30.37F
GORDONSVILLE*  FAIR      44  40  84 CALM      30.37F
WARRENTON*     FAIR      44  35  70 CALM      30.38F

$$

VAZ055>057-230800-
NORTH AND CENTRAL PIEDMONT

CITY           SKY/WX    TMP DP  RH WIND       PRES   REMARKS
FREDERICKSBRG* CLOUDY    51  40  64 CALM      30.38S
STAFFORD*      MOCLDY    51  38  62 CALM      30.42S

$$

NCZ024-NYZ072-PAZ021-071-VAZ022-071-230800-
OTHER REGIONAL OBSERVATIONS

CITY           SKY/WX    TMP DP  RH WIND       PRES   REMARKS
NEW YORK CITY  FAIR      50  27  40 CALM      30.42S
PHILADELPHIA   FAIR      47  39  74 SW5       30.41S
PITTSBURGH     FAIR      52  35  52 E8        30.26F
ROANOKE        FAIR      55  41  59 SE8       30.32R
RICHMOND       CLOUDY    49  41  74 SE3       30.37F
RALEIGH        CLOUDY    53  42  66 E6        30.31F

$$

ANZ530>537-230800-
MARINE OBSERVATIONS

STATION/POSITION TIME  TEMP    WIND        PRES
                       AIR SEA DIR/SP/G
                 (UTC) (F)     (DEG/KT/KT) (MB)
THOMAS PT LIGHT  0600   52 52  150/  7/  7 1030.7F
BALT KEY BRIDGE  0642   53     150/  4/  5 1029.6F
COVE POINT       0642   52     170/  9/ 11 1030.0F
LEWISETTA        0642   53 55  130/  8/  9 1029.1F
SOLOMONS ISLAND  0642   53 53  110/  6/  8 1029.0F
PINEY POINT      0642          140/ 11/ 12   N/A

$$





USA.gov is the U.S. government's official web portal to all federal, state and local government web resources and services.